Zurück zum Katalog

YUNYAO-1 48

AktivWissenschaftSSO
NORAD 63349·PAYLOAD·🇨🇳 China

Gestartet Mar 21, 2025 von Jiuquan Satellite Launch Center

Loading…

Nächste Überflüge (nächste 24 Stunden)

TLE

AktuellSource: Space-Track

Epoche: Sep 14, 2026, 13:51 UTC

1 63349U 25059F   26257.57777109  .00002871  00000-0  17213-3 0  9996
2 63349  97.6133  78.7024 0014374 208.4256 151.6191 15.11705618 81806

Verfolge YUNYAO-1 48 in Echtzeit mit AllMySat

Download on the App Store